Location: Lone Pine Community Mobile Home Park
(42.7367°N, 73.8567°W)
Time: 04:57:58
(UTC+00:00)

CZ-2D R/B - Pass Details

Date: 29 October 2020
Orbit: 522 x 537 km, 97.4° (Epoch: 29 November)

Event Time Altitude Azimuth Distance (km) Brightness Sun altitude
Rises 23:40:20 0° 182° (S) 2,647 6.8 -20.5°
Reaches altitude 10° 23:42:30 10° 189° (S) 1,761 6.0 -20.9°
Maximum altitude 23:46:08 43° 261° (W) 746 4.4 -21.6°
Drops below altitude 10° 23:49:47 10° 334° (NNW) 1,769 6.2 -22.3°
Sets 23:51:59 0° 342° (NNW) 2,662 7.1 -22.7°
